Flag for Germany Weather past 2 weeks in Mechernich, North Rhine-Westphalia, Germany

Now
59 °F

Passing clouds.


Feels Like: 60 °F
Forecast: 47 / 62 °F
Wind: 3 mph from Southwest

Location: Noervenich

Current Time: Sep 2, 2015 at 11:08:53 AM

Latest Report: Sep 2, 2015 at 10:20 AM


Visibility: N/A

Pressure: 30.04 "Hg

Humidity: 77%

Dew point: 52 °F

Location of MechernichLocation

Historic Weather in Mechernich — Graph

°F

Mechernich temperature yesterday

Maximum temperature yesterday: 70 °F (at 12:20 AM)
Minimum temperature yesterday: 57 °F (at 11:20 PM)
Average temperature yesterday: 62 °F

Past Weeks' High & Low Weather Summary

 TemperatureHumidityPressure
High91 °F (Aug 30, 3:20 PM)100% (Aug 19, 6:20 AM)30.24 "Hg (Aug 19, 6:20 AM)
Low48 °F (Aug 19, 6:20 AM)30% (Aug 23, 3:20 PM)29.53 "Hg (Aug 24, 2:20 PM)
Average66 °F72%29.97 "Hg
* Reported Aug 18 9:20 AM — Sep 2 9:20 AM, Mechernich, Weather by CustomWeather, © 2015

Note: Actual official high and low records may vary slightly from our data, if they occured in-between our weather recording intervals... More about our weather records

Advertising

Mechernich weather history for previous 24 hours

 ConditionsComfort  
Time TempWeatherWind HumidityBarometerVisibility
9:20 AM
Wed, Sep 2
57 °FScattered clouds.3 mph82%30.04 "HgN/A
8:20 AM54 °FScattered clouds.2 mph94%30.04 "HgN/A
7:20 AM52 °FPassing clouds.No wind94%30.04 "HgN/A
6:20 AM52 °FPartly cloudy.5 mph94%30.07 "HgN/A
5:20 AM52 °FPassing clouds.2 mph94%30.07 "HgN/A
4:20 AM54 °FPassing clouds.2 mph88%30.07 "HgN/A
3:20 AM52 °FPassing clouds.5 mph94%30.07 "HgN/A
2:20 AM54 °FPassing clouds.2 mph94%30.07 "HgN/A
1:20 AM54 °FPassing clouds.2 mph94%30.07 "HgN/A
12:20 AM55 °FPassing clouds.3 mph88%30.07 "HgN/A
11:20 PM
Tue, Sep 1
57 °FPassing clouds.3 mph82%30.04 "HgN/A
10:20 PM59 °FSprinkles. Passing clouds.6 mph94%30.04 "HgN/A
9:20 PM59 °FPassing clouds.5 mph88%30.04 "HgN/A
8:20 PM61 °FRain. Partly sunny.3 mph88%30.01 "HgN/A
7:20 PM61 °FPartly sunny.3 mph88%30.01 "HgN/A
6:20 PM61 °FScattered clouds.6 mph83%29.98 "HgN/A
6:02 PM61 °FBroken clouds.6 mph88%29.98 "HgN/A
5:20 PM64 °FScattered showers. Partly sunny.7 mph73%29.98 "HgN/A
4:20 PM63 °FBroken clouds.8 mph83%29.95 "HgN/A
4:00 PM64 °FBroken clouds.8 mph83%29.95 "HgN/A
3:20 PM63 °FBroken clouds.7 mph88%29.95 "HgN/A
2:20 PM61 °FBroken clouds.7 mph94%29.92 "HgN/A
1:20 PM61 °FLight rain. Broken clouds.5 mph94%29.89 "HgN/A
12:20 PM59 °FRain. More clouds than sun.6 mph100%29.89 "Hg6 mi
11:20 AM59 °FRain. Partly sunny.6 mph100%29.86 "Hg5 mi
Weather by CustomWeather, © 2015

See weather overviewHow to use our weather pages